Change the Weather History Date:

Sunday, December 15, 2013

  Actual Average Record
Temperature  
Mean Temperature 38 °F -  
Max Temperature 42 °F - - ()
Min Temperature 35 °F - - ()
Degree Days  
Heating Degree Days 26    
Moisture  
Dew Point 35 °F    
Average Humidity 87    
Maximum Humidity 100    
Minimum Humidity 70    
Precipitation  
Precipitation 0.00 in - - ()
Sea Level Pressure  
Sea Level Pressure 30.44 in    
Wind  
Wind Speed 5 mph ()    
Max Wind Speed 8 mph    
Max Gust Speed -    
Visibility 5.8 miles    
Events Rain    
T = Trace of Precipitation, MM = Missing Value Source: Averaged Metar Reports

Daily Weather History Graph

Daily Weather History Graph

Search for Another Location

Airport or City:

Trip Planner

Search our weather history database for the weather conditions in past years. The results will help you decide how hot, cold, wet, or windy it might be!

Date:

Astronomy

Dec. 15, 2013 Rise Set
Actual Time 7:50 AM CET 3:57 PM CET
Civil Twilight 7:11 AM CET 4:35 PM CET
Nautical Twilight 6:30 AM CET 5:16 PM CET
Astronomical Twilight 5:50 AM CET 5:56 PM CET
Moon 2:56 PM CET (12/15) 5:42 AM CET (12/15)
Length of Visible Light 9h 23m
Length of Day
8h 06m
Waxing Gibbous, 97% of the Moon is Illuminated
Dec 15
Waxing Gibbous
Dec 17
Full
Dec 25
Last Quarter
Jan 1
New
Jan 8
First Quarter

Hourly Weather History & Observations

Time (CET) Temp. Windchill Dew Point Humidity Pressure Visibility Wind Dir Wind Speed Gust Speed Precip Events Conditions
12:00 AM 37.4 °F 32.8 °F 37.4 °F 100% 30.42 in 5.0 mi SW 5.8 mph - N/A   Overcast
1:00 AM 37.4 °F 32.1 °F 35.6 °F 93% 30.42 in 5.0 mi WSW 6.9 mph - N/A   Overcast
2:00 AM 37.4 °F 31.4 °F 35.6 °F 93% 30.42 in 5.0 mi West 8.1 mph - N/A   Overcast
3:00 AM 37.4 °F 32.1 °F 35.6 °F 93% 30.45 in 5.0 mi West 6.9 mph - N/A Rain Light Rain
4:00 AM 37.4 °F 32.8 °F 35.6 °F 93% 30.42 in 5.0 mi WSW 5.8 mph - N/A   Overcast
5:00 AM 37.4 °F 32.8 °F 37.4 °F 100% 30.42 in 5.0 mi WSW 5.8 mph - N/A   Overcast
6:00 AM 39.2 °F 35.9 °F 37.4 °F 93% 30.42 in 6.2 mi WSW 4.6 mph - N/A   Overcast
7:00 AM 37.4 °F 32.8 °F 35.6 °F 93% 30.45 in 6.2 mi West 5.8 mph - N/A   Overcast
8:00 AM 39.2 °F 35.9 °F 35.6 °F 87% 30.45 in 6.2 mi West 4.6 mph - N/A   Overcast
9:00 AM 39.2 °F 34.2 °F 35.6 °F 87% 30.45 in 6.2 mi WSW 6.9 mph - N/A   Overcast
10:00 AM 39.2 °F 35.0 °F 33.8 °F 81% 30.45 in 6.2 mi WSW 5.8 mph - N/A   Mostly Cloudy
11:00 AM 41.0 °F 37.1 °F 33.8 °F 76% 30.45 in 6.2 mi SW 5.8 mph - N/A   Scattered Clouds
12:00 PM 41.0 °F 35.8 °F 33.8 °F 76% 30.45 in 6.2 mi WSW 8.1 mph - N/A   Mostly Cloudy
1:00 PM 42.8 °F 39.3 °F 33.8 °F 70% 30.45 in - West 5.8 mph - N/A   Clear
2:00 PM 42.8 °F 39.3 °F 35.6 °F 76% 30.45 in - West 5.8 mph - N/A   Clear
3:00 PM 41.0 °F 39.0 °F 35.6 °F 81% 30.42 in - SSW 3.5 mph - N/A   Clear
4:00 PM 41.0 °F 38.0 °F 35.6 °F 81% 30.42 in - SSE 4.6 mph - N/A   Clear
5:00 PM 39.2 °F 35.0 °F 35.6 °F 87% 30.42 in - SSE 5.8 mph - N/A   Clear
6:00 PM 39.2 °F 37.0 °F 35.6 °F 87% 30.42 in - SSE 3.5 mph - N/A   Clear
7:00 PM 39.2 °F - 35.6 °F 87% 30.45 in - West 2.3 mph - N/A   Clear
8:00 PM 37.4 °F - 33.8 °F 87% 30.45 in 6.2 mi SW 2.3 mph - N/A   Mostly Cloudy
9:00 PM 35.6 °F - 33.8 °F 93% 30.45 in 6.2 mi Variable 1.2 mph - N/A   Mostly Cloudy
10:00 PM 37.4 °F - 33.8 °F 87% 30.48 in 6.2 mi SSE 2.3 mph - N/A   Overcast
11:00 PM 39.2 °F - 33.8 °F 81% 30.48 in 6.2 mi SSE 2.3 mph - N/A   Mostly Cloudy